Reno - Stead, NV

3:59 AM PDT on August 17, 2017 (GMT -0700)
Reno - Stead

Weather History for KRTS - February, 2013

Change the Weather History Date:

Thursday, February 14, 2013

  Actual Average (KRNO) Record (KRNO)
Temperature  
Mean Temperature 36 °F -  
Max Temperature 48 °F 49 °F 72 °F (2015)
Min Temperature 23 °F 25 °F -6 °F (1903)
Degree Days  
Heating Degree Days 30    
Moisture  
Dew Point 25 °F    
Average Humidity 69    
Maximum Humidity 93    
Minimum Humidity 43    
Precipitation  
Precipitation 0.00 in - - ()
Sea Level Pressure  
Sea Level Pressure 30.40 in    
Wind  
Wind Speed 4 mph (East)    
Max Wind Speed 15 mph    
Max Gust Speed 16 mph    
Visibility 10 miles    
Events      
Averages and records for this station are not official NWS values.
T = Trace of Precipitation, MM = Missing Value Source: NWS Daily Summary

Daily Weather History Graph

Daily Weather History Graph

Search for Another Location

Airport or City:

Trip Planner

Search our weather history database for the weather conditions in past years. The results will help you decide how hot, cold, wet, or windy it might be!

Date:

Astronomy

Feb. 14, 2013 Rise Set
Actual Time 6:52 AM PST 5:35 PM PST
Civil Twilight 6:25 AM PST 6:02 PM PST
Nautical Twilight 5:53 AM PST 6:34 PM PST
Astronomical Twilight 5:22 AM PST 7:05 PM PST
Moon 8:58 AM PST (2/14) 10:41 PM PST (2/14)
Length of Visible Light 11h 37m
Length of Day
10h 42m
Waxing Crescent, 22% of the Moon is Illuminated
Feb 14
Waxing Crescent
Feb 17
First Quarter
Feb 25
Full
Mar 4
Last Quarter
Mar 11
New

Hourly Weather History & Observations

Time (PST) Temp. Windchill Dew Point Humidity Pressure Visibility Wind Dir Wind Speed Gust Speed Precip Events Conditions
12:15 AM 28.4 °F 24.6 °F 23.0 °F 80% 30.34 in 10.0 mi North 3.5 mph - N/A   Clear
12:35 AM 30.2 °F - 24.8 °F 80% 30.34 in 10.0 mi Calm Calm - N/A   Clear
12:50 AM 24.8 °F 20.5 °F 19.4 °F 80% 30.35 in 10.0 mi NW 3.5 mph - N/A   Clear
1:10 AM 24.8 °F - 21.2 °F 86% 30.35 in 10.0 mi Calm Calm - N/A   Clear
1:35 AM 26.6 °F - 23.0 °F 86% 30.35 in 10.0 mi Calm Calm - N/A   Clear
1:50 AM 26.6 °F - 23.0 °F 86% 30.35 in 10.0 mi Calm Calm - N/A   Clear
2:10 AM 30.2 °F - 23.0 °F 75% 30.36 in 10.0 mi Calm Calm - N/A   Clear
2:35 AM 26.6 °F - 23.0 °F 86% 30.36 in 10.0 mi Calm Calm - N/A   Clear
2:50 AM 26.6 °F - 23.0 °F 86% 30.35 in 10.0 mi Calm Calm - N/A   Clear
3:10 AM 28.4 °F - 24.8 °F 86% 30.35 in 10.0 mi Calm Calm - N/A   Clear
3:30 AM 28.4 °F 24.6 °F 23.0 °F 80% 30.35 in 10.0 mi NE 3.5 mph - N/A   Clear
3:55 AM 28.4 °F 23.3 °F 23.0 °F 80% 30.36 in 10.0 mi WSW 4.6 mph - N/A   Clear
4:10 AM 23.0 °F 18.4 °F 19.4 °F 86% 30.36 in 10.0 mi West 3.5 mph - N/A   Clear
4:30 AM 23.0 °F - 19.4 °F 86% 30.36 in 10.0 mi Calm Calm - N/A   Clear
4:55 AM 24.8 °F - 21.2 °F 86% 30.37 in 10.0 mi Calm Calm - N/A   Clear
5:10 AM 24.8 °F - 21.2 °F 86% 30.37 in 10.0 mi Calm Calm - N/A   Clear
5:30 AM 24.8 °F 20.5 °F 21.2 °F 86% 30.37 in 10.0 mi WNW 3.5 mph - N/A   Clear
5:50 AM 23.0 °F 18.4 °F 19.4 °F 86% 30.38 in 10.0 mi NE 3.5 mph - N/A   Clear
6:10 AM 26.6 °F 22.6 °F 23.0 °F 86% 30.38 in 10.0 mi NNW 3.5 mph - N/A   Clear
6:30 AM 26.6 °F - 23.0 °F 86% 30.39 in 10.0 mi Calm Calm - N/A   Clear
6:50 AM 23.0 °F 18.4 °F 19.4 °F 86% 30.40 in 10.0 mi SW 3.5 mph - N/A   Clear
7:10 AM 23.0 °F - 19.4 °F 86% 30.40 in 10.0 mi Calm Calm - N/A   Clear
7:35 AM 24.8 °F - 21.2 °F 86% 30.41 in 10.0 mi Calm Calm - N/A   Clear
7:55 AM 26.6 °F - 24.8 °F 93% 30.42 in 10.0 mi Calm Calm - N/A   Clear
8:10 AM 28.4 °F - 24.8 °F 86% 30.43 in 10.0 mi Calm Calm - N/A   Clear
8:35 AM 32.0 °F - 26.6 °F 80% 30.43 in 10.0 mi Calm Calm - N/A   Clear
8:55 AM 32.0 °F 28.7 °F 26.6 °F 80% 30.44 in 10.0 mi South 3.5 mph - N/A   Clear
9:15 AM 35.6 °F - 26.6 °F 70% 30.44 in 10.0 mi Calm Calm - N/A   Clear
9:35 AM 39.2 °F 32.5 °F 28.4 °F 65% 30.44 in 10.0 mi East 10.4 mph - N/A   Clear
9:55 AM 41.0 °F 35.2 °F 28.4 °F 61% 30.43 in 10.0 mi East 9.2 mph - N/A   Clear
10:15 AM 41.0 °F 37.1 °F 26.6 °F 57% 30.43 in 10.0 mi ESE 5.8 mph - N/A   Clear
10:35 AM 41.0 °F 35.8 °F 26.6 °F 57% 30.42 in 10.0 mi ESE 8.1 mph - N/A   Clear
10:55 AM 42.8 °F 39.3 °F 28.4 °F 57% 30.42 in 10.0 mi ESE 5.8 mph - N/A   Clear
11:15 AM 44.6 °F 37.8 °F 28.4 °F 53% 30.42 in 10.0 mi ESE 15.0 mph - N/A   Clear
11:35 AM 44.6 °F 38.8 °F 26.6 °F 49% 30.41 in 10.0 mi ESE 11.5 mph - N/A   Clear
11:55 AM 46.4 °F 40.4 °F 26.6 °F 46% 30.40 in 10.0 mi East 13.8 mph - N/A   Clear
12:15 PM 46.4 °F 41.5 °F 28.4 °F 50% 30.39 in 10.0 mi ESE 10.4 mph - N/A   Clear
12:35 PM 48.2 °F - 26.6 °F 43% 30.38 in 10.0 mi SE 12.7 mph - N/A   Clear
12:55 PM 48.2 °F - 28.4 °F 46% 30.39 in 10.0 mi ESE 10.4 mph 16.1 mph N/A   Clear
1:15 PM 48.2 °F - 28.4 °F 46% 30.38 in 10.0 mi East 10.4 mph - N/A   Clear
1:30 PM 48.2 °F - 26.6 °F 43% 30.38 in 10.0 mi ESE 12.7 mph 16.1 mph N/A   Clear
1:50 PM 48.2 °F - 28.4 °F 46% 30.38 in 10.0 mi East 10.4 mph 16.1 mph N/A   Clear
2:15 PM 48.2 °F - 26.6 °F 43% 30.38 in 10.0 mi ENE 6.9 mph - N/A   Unknown
2:35 PM 48.2 °F - 28.4 °F 46% 30.38 in 10.0 mi ESE 6.9 mph - N/A   Clear
2:55 PM 48.2 °F - 26.6 °F 43% 30.38 in 10.0 mi East 6.9 mph - N/A   Clear
3:15 PM 48.2 °F - 28.4 °F 46% 30.38 in 10.0 mi East 10.4 mph - N/A   Clear
3:35 PM 48.2 °F - 26.6 °F 43% 30.38 in 10.0 mi ENE 10.4 mph - N/A   Clear
3:55 PM 48.2 °F - 28.4 °F 46% 30.39 in 10.0 mi ENE 9.2 mph - N/A   Clear
4:15 PM 48.2 °F - 26.6 °F 43% 30.39 in 10.0 mi NE 9.2 mph - N/A   Clear
4:35 PM 48.2 °F - 26.6 °F 43% 30.39 in 10.0 mi ENE 6.9 mph - N/A   Clear
4:55 PM 46.4 °F 41.9 °F 26.6 °F 46% 30.39 in 10.0 mi NE 9.2 mph - N/A   Clear
5:15 PM 44.6 °F 39.2 °F 26.6 °F 49% 30.39 in 10.0 mi NE 10.4 mph - N/A   Clear
5:35 PM 42.8 °F 39.3 °F 26.6 °F 53% 30.39 in 10.0 mi NE 5.8 mph - N/A   Clear
5:55 PM 41.0 °F 38.0 °F 26.6 °F 57% 30.40 in 10.0 mi East 4.6 mph - N/A   Clear
6:15 PM 39.2 °F 33.0 °F 26.6 °F 61% 30.41 in 10.0 mi ENE 9.2 mph - N/A   Clear
6:35 PM 39.2 °F 33.6 °F 26.6 °F 61% 30.41 in 10.0 mi ENE 8.1 mph - N/A   Clear
6:55 PM 39.2 °F 33.0 °F 26.6 °F 61% 30.42 in 10.0 mi ENE 9.2 mph - N/A   Clear
7:15 PM 39.2 °F 33.6 °F 26.6 °F 61% 30.42 in 10.0 mi ENE 8.1 mph - N/A   Clear
7:35 PM 35.6 °F 29.2 °F 26.6 °F 70% 30.43 in 10.0 mi East 8.1 mph - N/A   Clear
7:55 PM 35.6 °F 29.9 °F 26.6 °F 70% 30.43 in 10.0 mi East 6.9 mph - N/A   Clear
8:15 PM 33.8 °F 28.6 °F 24.8 °F 70% 30.44 in 10.0 mi East 5.8 mph - N/A   Clear
8:30 PM 33.8 °F - 26.6 °F 75% 30.44 in 10.0 mi Calm Calm - N/A   Clear
8:50 PM 32.0 °F 28.7 °F 24.8 °F 75% 30.44 in 10.0 mi North 3.5 mph - N/A   Clear
9:15 PM 32.0 °F - 26.6 °F 80% 30.44 in 10.0 mi Calm Calm - N/A   Clear
9:30 PM 33.8 °F - 26.6 °F 75% 30.45 in 10.0 mi Calm Calm - N/A   Clear
9:50 PM 32.0 °F - 24.8 °F 75% 30.45 in 10.0 mi Calm Calm - N/A   Clear
10:10 PM 28.4 °F - 24.8 °F 86% 30.45 in 10.0 mi Calm Calm - N/A   Clear
10:30 PM 28.4 °F 24.6 °F 23.0 °F 80% 30.45 in 10.0 mi North 3.5 mph - N/A   Clear
10:55 PM 32.0 °F 28.7 °F 24.8 °F 75% 30.45 in 10.0 mi ENE 3.5 mph - N/A   Clear
11:10 PM 28.4 °F 24.6 °F 23.0 °F 80% 30.45 in 10.0 mi SSW 3.5 mph - N/A   Clear
11:30 PM 26.6 °F - 23.0 °F 86% 30.45 in 10.0 mi Calm Calm - N/A   Clear
11:50 PM 24.8 °F - 21.2 °F 86% 30.45 in 10.0 mi Calm Calm - N/A   Clear